Simultaneous Nadir Overpasses (SNOs) Predictions

Prediction of SNOs between GOES-17 and NPP Satellite Orbit:

Table of predicted SNOs for the next 14.0 days since TLE Epoch: 2/22/2020
Index Date Time (GOES-17) GOES-17 Lat,Lon NPP Lat,Lon Distance(km) Time Diff (sec)
1 02/22/2020 22:30:02 -0.02,-137.22 0.26,-136.04 134.15 80
2 02/24/2020 10:51:50 0.02,-137.21 0.91,-141.32 467.87 80
3 02/25/2020 10:30:26 0.02,-137.20 -0.09,-136.78 47.85 80
4 02/27/2020 22:33:37 -0.02,-137.19 -0.12,-137.55 41.90 80
5 02/28/2020 22:17:33 -0.02,-137.18 0.89,-133.02 473.49 80
6 03/01/2020 10:39:21 0.02,-137.16 0.29,-138.29 129.68 80
7 03/02/2020 10:17:57 0.02,-137.14 -0.71,-133.76 385.09 80
8 03/03/2020 22:39:54 -0.02,-137.12 -0.44,-139.07 221.87 80
9 03/04/2020 22:23:50 -0.02,-137.10 0.57,-134.54 292.38 80
10 03/06/2020 10:42:57 0.02,-137.07 0.67,-139.80 312.44 80




NCC Satellite Simultaneous Nadir Overpasses (SNOs) Prediction Service
